Wetterdaten: aktuell Sonntag, 05.12.2021 23:15
Datum Zeit Temp. A. Boden 1m Feuchte A. Luftdruck Regen Wind Richtung Richtung Sonnenschein Helligkeit Taupunkt Windchill
05.12.2021 23:15 -0,6 C 6,7 C 87 % 1008 hPa 0,0 l/m 0,0 km/h (0 Bft) N 355 0 min 0 lux -2,5 C -0,6 C
05.12.2021 23:10 -0,6 C 6,7 C 87 % 1008 hPa 0,0 l/m 0,0 km/h (0 Bft) N 355 0 min 0 lux -2,5 C -0,6 C
05.12.2021 23:05 -0,6 C 6,7 C 87 % 1008 hPa 0,0 l/m 0,0 km/h (0 Bft) N 355 0 min 0 lux -2,5 C -0,6 C
05.12.2021 23:00 -0,6 C 6,6 C 87 % 1008 hPa 0,0 l/m 0,0 km/h (0 Bft) N 355 0 min 0 lux -2,5 C -0,6 C
05.12.2021 22:55 -0,5 C 6,6 C 86 % 1008 hPa 0,0 l/m 0,0 km/h (0 Bft) N 355 0 min 0 lux -2,5 C -0,5 C
05.12.2021 22:50 -0,5 C 6,7 C 86 % 1008 hPa 0,0 l/m 0,0 km/h (0 Bft) N 355 0 min 0 lux -2,5 C -0,5 C
05.12.2021 22:45 -0,5 C 6,7 C 86 % 1008 hPa 0,0 l/m 0,0 km/h (0 Bft) N 355 0 min 0 lux -2,5 C -0,5 C
05.12.2021 22:40 -0,5 C 6,7 C 85 % 1008 hPa 0,0 l/m 0,0 km/h (0 Bft) N 355 0 min 0 lux -2,7 C -0,5 C
05.12.2021 22:35 -0,5 C 6,6 C 85 % 1008 hPa 0,0 l/m 0,0 km/h (0 Bft) N 355 0 min 0 lux -2,7 C -0,5 C
05.12.2021 22:30 -0,5 C 6,6 C 85 % 1008 hPa 0,0 l/m 0,0 km/h (0 Bft) N 355 0 min 0 lux -2,7 C -0,5 C
05.12.2021 22:25 -0,5 C 6,7 C 84 % 1008 hPa 0,0 l/m 0,0 km/h (0 Bft) N 355 0 min 0 lux -2,9 C -0,5 C
05.12.2021 22:20 -0,4 C 6,7 C 84 % 1008 hPa 0,0 l/m 0,0 km/h (0 Bft) N 355 0 min 0 lux -2,8 C -0,4 C
05.12.2021 22:15 -0,4 C 6,7 C 83 % 1007 hPa 0,0 l/m 0,0 km/h (0 Bft) N 355 0 min 0 lux -2,9 C -0,4 C
05.12.2021 22:10 -0,3 C 6,7 C 83 % 1007 hPa 0,0 l/m 0,0 km/h (0 Bft) N 355 0 min 0 lux -2,8 C -0,3 C
05.12.2021 22:06 -0,3 C 6,7 C 83 % 1007 hPa 0,0 l/m 0,0 km/h (0 Bft) N 355 0 min 0 lux -2,8 C -0,3 C
05.12.2021 22:00 -0,2 C 6,7 C 83 % 1007 hPa 0,0 l/m 0,0 km/h (0 Bft) N 355 0 min 0 lux -2,7 C -0,2 C
05.12.2021 21:56 0,0 C 6,7 C 82 % 1007 hPa 0,0 l/m 0,0 km/h (0 Bft) N 355 0 min 0 lux -2,7 C 0,0 C
05.12.2021 21:50 0,0 C 6,6 C 82 % 1007 hPa 0,0 l/m 0,0 km/h (0 Bft) N 355 0 min 0 lux -2,7 C 0,0 C
05.12.2021 21:45 0,1 C 6,7 C 82 % 1007 hPa 0,0 l/m 0,0 km/h (0 Bft) N 355 0 min 0 lux -2,6 C 0,1 C
05.12.2021 21:41 0,3 C 6,7 C 82 % 1007 hPa 0,0 l/m 0,0 km/h (0 Bft) N 355 0 min 0 lux -2,4 C 0,3 C
05.12.2021 21:35 0,4 C 6,7 C 82 % 1007 hPa 0,0 l/m 0,0 km/h (0 Bft) N 355 0 min 0 lux -2,3 C 0,4 C
05.12.2021 21:30 0,4 C 6,7 C 82 % 1007 hPa 0,0 l/m 0,0 km/h (0 Bft) N 355 0 min 0 lux -2,3 C 0,4 C
05.12.2021 21:26 0,5 C 6,7 C 82 % 1007 hPa 0,0 l/m 0,0 km/h (0 Bft) N 355 0 min 0 lux -2,2 C 0,5 C
05.12.2021 21:20 0,6 C 6,7 C 82 % 1007 hPa 0,0 l/m 0,0 km/h (0 Bft) N 355 0 min 0 lux -2,1 C 0,6 C
05.12.2021 21:15 0,7 C 6,7 C 82 % 1007 hPa 0,0 l/m 0,0 km/h (0 Bft) N 355 0 min 0 lux -2,0 C 0,7 C
05.12.2021 21:10 0,7 C 6,7 C 82 % 1007 hPa 0,0 l/m 0,0 km/h (0 Bft) N 355 0 min 0 lux -2,0 C 0,7 C
05.12.2021 21:05 0,8 C 6,7 C 82 % 1007 hPa 0,0 l/m 0,0 km/h (0 Bft) N 355 0 min 0 lux -1,9 C 0,8 C
05.12.2021 21:00 0,8 C 6,7 C 82 % 1007 hPa 0,0 l/m 0,0 km/h (0 Bft) N 355 0 min 0 lux -1,9 C 0,8 C
05.12.2021 20:55 0,9 C 6,7 C 82 % 1007 hPa 0,0 l/m 0,0 km/h (0 Bft) N 355 0 min 0 lux -1,8 C 0,9 C
05.12.2021 20:50 0,9 C 6,7 C 82 % 1007 hPa 0,0 l/m 0,0 km/h (0 Bft) N 355 0 min 0 lux -1,8 C 0,9 C
05.12.2021 20:45 1,0 C 6,7 C 82 % 1007 hPa 0,0 l/m 0,0 km/h (0 Bft) N 355 0 min 0 lux -1,7 C 1,0 C
05.12.2021 20:40 1,0 C 6,7 C 82 % 1007 hPa 0,0 l/m 0,0 km/h (0 Bft) N 355 0 min 0 lux -1,7 C 1,0 C
05.12.2021 20:36 1,0 C 6,7 C 82 % 1007 hPa 0,0 l/m 0,0 km/h (0 Bft) N 355 0 min 0 lux -1,7 C 1,0 C
05.12.2021 20:30 1,0 C 6,7 C 82 % 1007 hPa 0,0 l/m 0,0 km/h (0 Bft) N 355 0 min 0 lux -1,7 C 1,0 C
05.12.2021 20:25 1,0 C 6,7 C 82 % 1007 hPa 0,0 l/m 0,0 km/h (0 Bft) N 355 0 min 0 lux -1,7 C 1,0 C
05.12.2021 20:21 1,0 C 6,7 C 81 % 1007 hPa 0,0 l/m 0,0 km/h (0 Bft) N 355 0 min 0 lux -1,9 C 1,0 C
05.12.2021 20:15 1,0 C 6,7 C 81 % 1007 hPa 0,0 l/m 0,0 km/h (0 Bft) N 355 0 min 0 lux -1,9 C 1,0 C
05.12.2021 20:10 1,0 C 6,7 C 81 % 1007 hPa 0,0 l/m 0,0 km/h (0 Bft) N 355 0 min 0 lux -1,9 C 1,0 C
05.12.2021 20:06 1,0 C 6,7 C 81 % 1007 hPa 0,0 l/m 0,0 km/h (0 Bft) N 355 0 min 0 lux -1,9 C 1,0 C
05.12.2021 20:00 1,0 C 6,7 C 81 % 1007 hPa 0,0 l/m 0,0 km/h (0 Bft) N 355 0 min 0 lux -1,9 C 1,0 C
05.12.2021 19:55 1,0 C 6,7 C 81 % 1007 hPa 0,0 l/m 0,0 km/h (0 Bft) N 355 0 min 0 lux -1,9 C 1,0 C
05.12.2021 19:50 1,1 C 6,7 C 80 % 1007 hPa 0,0 l/m 0,0 km/h (0 Bft) N 355 0 min 0 lux -2,0 C 1,1 C
05.12.2021 19:45 1,1 C 6,7 C 80 % 1007 hPa 0,0 l/m 0,0 km/h (0 Bft) N 355 0 min 0 lux -2,0 C 1,1 C
05.12.2021 19:40 1,1 C 6,7 C 80 % 1007 hPa 0,0 l/m 0,0 km/h (0 Bft) N 355 0 min 0 lux -2,0 C 1,1 C
05.12.2021 19:41 1,1 C 6,7 C 80 % 1007 hPa 0,0 l/m 0,0 km/h (0 Bft) N 355 0 min 0 lux -2,0 C 1,1 C
05.12.2021 19:35 1,1 C 6,7 C 80 % 1007 hPa 0,0 l/m 0,0 km/h (0 Bft) N 355 0 min 0 lux -2,0 C 1,1 C
05.12.2021 19:30 1,1 C 6,7 C 80 % 1007 hPa 0,0 l/m 0,0 km/h (0 Bft) N 355 0 min 0 lux -2,0 C 1,1 C
05.12.2021 19:25 1,1 C 6,7 C 80 % 1007 hPa 0,0 l/m 0,0 km/h (0 Bft) N 355 0 min 0 lux -2,0 C 1,1 C
05.12.2021 19:20 1,1 C 6,7 C 80 % 1007 hPa 0,0 l/m 0,0 km/h (0 Bft) N 355 0 min 0 lux -2,0 C 1,1 C
05.12.2021 19:15 1,2 C 6,7 C 79 % 1006 hPa 0,0 l/m 0,0 km/h (0 Bft) N 355 0 min 0 lux -2,0 C 1,2 C
05.12.2021 19:10 1,2 C 6,7 C 79 % 1006 hPa 0,0 l/m 0,0 km/h (0 Bft) N 355 0 min 0 lux -2,0 C 1,2 C
05.12.2021 19:05 1,2 C 6,7 C 79 % 1006 hPa 0,0 l/m 0,0 km/h (0 Bft) N 355 0 min 0 lux -2,0 C 1,2 C
05.12.2021 19:00 1,2 C 6,7 C 79 % 1006 hPa 0,0 l/m 0,0 km/h (0 Bft) N 355 0 min 0 lux -2,0 C 1,2 C
05.12.2021 18:55 1,2 C 6,7 C 79 % 1006 hPa 0,0 l/m 0,0 km/h (0 Bft) N 355 0 min 0 lux -2,0 C 1,2 C
05.12.2021 18:50 1,2 C 6,7 C 79 % 1006 hPa 0,0 l/m 0,0 km/h (0 Bft) N 355 0 min 0 lux -2,0 C 1,2 C
05.12.2021 18:45 1,2 C 6,7 C 79 % 1006 hPa 0,0 l/m 0,0 km/h (0 Bft) N 355 0 min 0 lux -2,0 C 1,2 C
05.12.2021 18:40 1,3 C 6,7 C 79 % 1006 hPa 0,0 l/m 0,0 km/h (0 Bft) N 355 0 min 0 lux -1,9 C 1,3 C
05.12.2021 18:35 1,3 C 6,7 C 78 % 1006 hPa 0,0 l/m 0,0 km/h (0 Bft) N 355 0 min 0 lux -2,1 C 1,3 C
05.12.2021 18:30 1,3 C 6,7 C 78 % 1006 hPa 0,0 l/m 0,0 km/h (0 Bft) N 355 0 min 0 lux -2,1 C 1,3 C
05.12.2021 18:25 1,4 C 6,7 C 78 % 1006 hPa 0,0 l/m 0,0 km/h (0 Bft) N 355 0 min 0 lux -2,0 C 1,4 C
05.12.2021 18:20 1,3 C 6,7 C 78 % 1006 hPa 0,0 l/m 0,0 km/h (0 Bft) N 355 0 min 0 lux -2,1 C 1,3 C
05.12.2021 18:15 1,3 C 6,7 C 78 % 1006 hPa 0,0 l/m 0,0 km/h (0 Bft) N 355 0 min 0 lux -2,1 C 1,3 C
05.12.2021 18:10 6,5 C 6,7 C 77 % 1006 hPa 0,0 l/m 0,0 km/h (0 Bft) N 355 0 min 0 lux 2,8 C 6,5 C
05.12.2021 18:05 6,5 C 6,7 C 77 % 1006 hPa 0,0 l/m 0,0 km/h (0 Bft) N 355 0 min 0 lux 2,8 C 6,5 C
05.12.2021 18:00 6,5 C 6,7 C 77 % 1006 hPa 0,0 l/m 0,0 km/h (0 Bft) N 355 0 min 0 lux 2,8 C 6,5 C
05.12.2021 17:55 1,4 C 6,7 C 77 % 1006 hPa 0,0 l/m 0,0 km/h (0 Bft) N 355 0 min 0 lux -2,2 C 1,4 C
05.12.2021 17:50 1,4 C 6,7 C 77 % 1006 hPa 0,0 l/m 0,0 km/h (0 Bft) N 355 0 min 0 lux -2,2 C 1,4 C
05.12.2021 17:45 1,4 C 6,7 C 77 % 1006 hPa 0,0 l/m 0,0 km/h (0 Bft) N 355 0 min 0 lux -2,2 C 1,4 C
05.12.2021 17:40 1,4 C 6,7 C 77 % 1006 hPa 0,0 l/m 0,0 km/h (0 Bft) N 355 0 min 0 lux -2,2 C 1,4 C
05.12.2021 17:35 1,5 C 6,7 C 76 % 1006 hPa 0,0 l/m 0,0 km/h (0 Bft) N 355 0 min 0 lux -2,3 C 1,5 C
05.12.2021 17:30 1,5 C 6,7 C 76 % 1006 hPa 0,0 l/m 0,0 km/h (0 Bft) N 355 0 min 0 lux -2,3 C 1,5 C
05.12.2021 17:26 1,5 C 6,7 C 76 % 1006 hPa 0,0 l/m 0,0 km/h (0 Bft) N 355 0 min 0 lux -2,3 C 1,5 C
05.12.2021 17:20 1,5 C 6,7 C 76 % 1006 hPa 0,0 l/m 0,0 km/h (0 Bft) N 355 0 min 0 lux -2,3 C 1,5 C
05.12.2021 17:15 1,5 C 6,7 C 76 % 1005 hPa 0,0 l/m 0,0 km/h (0 Bft) N 355 0 min 0 lux -2,3 C 1,5 C
05.12.2021 17:11 1,6 C 6,7 C 76 % 1005 hPa 0,3 l/m 0,0 km/h (0 Bft) N 355 0 min 0 lux -2,2 C 1,6 C
05.12.2021 17:05 1,6 C 6,7 C 75 % 1005 hPa 0,0 l/m 0,0 km/h (0 Bft) N 355 0 min 0 lux -2,3 C 1,6 C
05.12.2021 17:01 1,6 C 6,7 C 75 % 1005 hPa 0,0 l/m 0,0 km/h (0 Bft) N 355 0 min 0 lux -2,3 C 1,6 C
05.12.2021 16:55 1,6 C 6,7 C 74 % 1005 hPa 0,0 l/m 0,0 km/h (0 Bft) N 355 0 min 1 lux -2,5 C 1,6 C
05.12.2021 16:50 1,6 C 6,7 C 74 % 1005 hPa 0,0 l/m 0,0 km/h (0 Bft) N 355 0 min 7 lux -2,5 C 1,6 C
05.12.2021 16:45 1,7 C 6,7 C 73 % 1005 hPa 0,0 l/m 0,0 km/h (0 Bft) N 355 0 min 10 lux -2,6 C 1,7 C
05.12.2021 16:40 1,9 C 6,7 C 72 % 1005 hPa 0,0 l/m 0,0 km/h (0 Bft) N 355 0 min 19 lux -2,6 C 1,9 C
05.12.2021 16:35 1,9 C 6,7 C 72 % 1005 hPa 0,0 l/m 0,0 km/h (0 Bft) N 355 0 min 37 lux -2,6 C 1,9 C
05.12.2021 16:30 2,0 C 6,7 C 72 % 1005 hPa 0,0 l/m 0,0 km/h (0 Bft) N 355 0 min 80 lux -2,5 C 2,0 C
05.12.2021 16:26 2,1 C 6,7 C 71 % 1005 hPa 0,0 l/m 0,0 km/h (0 Bft) N 355 0 min 147 lux -2,6 C 2,1 C
05.12.2021 16:20 2,1 C 6,7 C 71 % 1005 hPa 0,0 l/m 0,0 km/h (0 Bft) N 355 0 min 233 lux -2,6 C 2,1 C
05.12.2021 16:15 2,2 C 6,7 C 71 % 1005 hPa 0,0 l/m 0,0 km/h (0 Bft) N 355 0 min 404 lux -2,5 C 2,2 C
05.12.2021 16:10 2,3 C 6,7 C 70 % 1005 hPa 0,0 l/m 0,0 km/h (0 Bft) N 355 0 min 512 lux -2,6 C 2,3 C
05.12.2021 16:11 2,3 C 6,7 C 70 % 1005 hPa 0,0 l/m 0,0 km/h (0 Bft) N 355 0 min 512 lux -2,6 C 2,3 C
05.12.2021 16:05 2,3 C 6,7 C 70 % 1005 hPa 0,0 l/m 0,0 km/h (0 Bft) N 355 0 min 713 lux -2,6 C 2,3 C
05.12.2021 16:01 2,4 C 6,7 C 70 % 1005 hPa 0,0 l/m 0,0 km/h (0 Bft) N 355 0 min 1,06 klux -2,5 C 2,4 C
05.12.2021 15:55 2,5 C 6,7 C 69 % 1005 hPa 0,0 l/m 0,0 km/h (0 Bft) N 355 0 min 1,09 klux -2,6 C 2,5 C
05.12.2021 15:50 2,5 C 6,7 C 69 % 1005 hPa 0,0 l/m 0,0 km/h (0 Bft) N 355 0 min 1,34 klux -2,6 C 2,5 C
05.12.2021 15:45 2,6 C 6,7 C 69 % 1005 hPa 0,0 l/m 0,0 km/h (0 Bft) N 355 0 min 1,50 klux -2,5 C 2,6 C
05.12.2021 15:40 2,6 C 6,7 C 68 % 1005 hPa 0,0 l/m 0,0 km/h (0 Bft) N 355 0 min 1,74 klux -2,7 C 2,6 C
05.12.2021 15:35 2,6 C 6,7 C 68 % 1005 hPa 0,0 l/m 0,0 km/h (0 Bft) N 355 0 min 2,13 klux -2,7 C 2,6 C
05.12.2021 15:30 2,6 C 6,7 C 67 % 1005 hPa 0,0 l/m 0,0 km/h (0 Bft) N 355 0 min 2,23 klux -2,9 C 2,6 C
05.12.2021 15:25 2,7 C 6,7 C 67 % 1005 hPa 0,0 l/m 0,0 km/h (0 Bft) N 355 0 min 2,15 klux -2,8 C 2,7 C
05.12.2021 15:20 2,7 C 6,7 C 66 % 1005 hPa 0,0 l/m 0,0 km/h (0 Bft) N 355 0 min 2,50 klux -3,0 C 2,7 C
05.12.2021 15:15 2,7 C 6,7 C 66 % 1005 hPa 0,0 l/m 0,0 km/h (0 Bft) N 355 0 min 2,79 klux -3,0 C 2,7 C
05.12.2021 15:10 2,8 C 6,7 C 66 % 1004 hPa 0,0 l/m 0,0 km/h (0 Bft) N 355 0 min 2,78 klux -2,9 C 2,8 C
05.12.2021 15:06 2,8 C 6,7 C 66 % 1005 hPa 0,0 l/m 0,0 km/h (0 Bft) N 355 0 min 2,48 klux -2,9 C 2,8 C
05.12.2021 15:00 2,8 C 6,7 C 66 % 1005 hPa 0,0 l/m 0,0 km/h (0 Bft) N 355 0 min 2,52 klux -2,9 C 2,8 C
05.12.2021 14:55 2,8 C 6,7 C 66 % 1005 hPa 0,0 l/m 0,0 km/h (0 Bft) N 355 0 min 2,69 klux -2,9 C 2,8 C
05.12.2021 14:50 2,9 C 6,7 C 66 % 1004 hPa 0,0 l/m 0,0 km/h (0 Bft) N 355 0 min 2,73 klux -2,8 C 2,9 C
05.12.2021 14:45 2,9 C 6,7 C 66 % 1004 hPa 0,0 l/m 0,0 km/h (0 Bft) N 355 0 min 2,72 klux -2,8 C 2,9 C
05.12.2021 14:41 2,9 C 6,7 C 66 % 1004 hPa 0,0 l/m 0,0 km/h (0 Bft) N 355 0 min 3,45 klux -2,8 C 2,9 C
05.12.2021 14:35 3,0 C 6,7 C 66 % 1004 hPa 0,0 l/m 0,0 km/h (0 Bft) N 355 0 min 4,52 klux -2,7 C 3,0 C
05.12.2021 14:30 3,0 C 6,7 C 66 % 1004 hPa 0,0 l/m 0,0 km/h (0 Bft) N 355 0 min 4,65 klux -2,7 C 3,0 C
05.12.2021 14:26 2,9 C 6,7 C 66 % 1004 hPa 0,0 l/m 0,0 km/h (0 Bft) N 355 0 min 5,11 klux -2,8 C 2,9 C
05.12.2021 14:20 2,9 C 6,7 C 65 % 1004 hPa 0,0 l/m 0,0 km/h (0 Bft) N 355 0 min 7,43 klux -3,0 C 2,9 C
05.12.2021 14:15 3,0 C 6,7 C 66 % 1004 hPa 0,0 l/m 0,0 km/h (0 Bft) N 355 0 min 8,32 klux -2,7 C 3,0 C
05.12.2021 14:10 3,0 C 6,7 C 67 % 1004 hPa 0,0 l/m 0,0 km/h (0 Bft) N 355 0 min 8,43 klux -2,5 C 3,0 C
05.12.2021 14:05 3,0 C 6,7 C 67 % 1004 hPa 0,0 l/m 0,0 km/h (0 Bft) N 355 0 min 9,5 klux -2,5 C 3,0 C
05.12.2021 14:00 2,9 C 6,7 C 67 % 1004 hPa 0,0 l/m 0,0 km/h (0 Bft) N 355 0 min 10,5 klux -2,6 C 2,9 C
05.12.2021 14:01 2,9 C 6,7 C 67 % 1004 hPa 0,0 l/m 0,0 km/h (0 Bft) N 355 0 min 10,5 klux -2,6 C 2,9 C
05.12.2021 13:55 2,8 C 6,7 C 66 % 1004 hPa 0,0 l/m 0,0 km/h (0 Bft) N 355 0 min 10,4 klux -2,9 C 2,8 C
05.12.2021 13:50 2,8 C 6,7 C 66 % 1004 hPa 0,3 l/m 0,0 km/h (0 Bft) N 355 0 min 9,7 klux -2,9 C 2,8 C
05.12.2021 13:46 2,8 C 6,7 C 66 % 1004 hPa 0,0 l/m 0,0 km/h (0 Bft) N 355 0 min 9,7 klux -2,9 C 2,8 C
05.12.2021 13:40 2,7 C 6,7 C 67 % 1004 hPa 0,0 l/m 0,0 km/h (0 Bft) N 355 0 min 11,4 klux -2,8 C 2,7 C
05.12.2021 13:35 2,7 C 6,7 C 68 % 1004 hPa 0,0 l/m 0,0 km/h (0 Bft) N 355 0 min 11,5 klux -2,6 C 2,7 C
05.12.2021 13:30 2,6 C 6,7 C 67 % 1004 hPa 0,0 l/m 0,0 km/h (0 Bft) N 355 0 min 13,5 klux -2,9 C 2,6 C
05.12.2021 13:25 2,6 C 6,7 C 66 % 1004 hPa 0,0 l/m 0,0 km/h (0 Bft) N 355 0 min 10,4 klux -3,1 C 2,6 C
05.12.2021 13:20 2,6 C 6,7 C 66 % 1004 hPa 0,0 l/m 7,9 km/h (2 Bft) N 360 0 min 6,58 klux -3,1 C 0,3 C
05.12.2021 13:15 2,6 C 6,7 C 66 % 1004 hPa 0,0 l/m 7,9 km/h (2 Bft) N 360 0 min 7,71 klux -3,1 C 0,3 C
05.12.2021 13:10 2,6 C 6,7 C 66 % 1004 hPa 0,0 l/m 7,9 km/h (2 Bft) N 360 0 min 7,71 klux -3,1 C 0,3 C
05.12.2021 13:05 2,6 C 6,7 C 67 % 1004 hPa 0,0 l/m 7,9 km/h (2 Bft) N 360 0 min 8,83 klux -2,9 C 0,3 C
05.12.2021 13:00 2,5 C 6,7 C 68 % 1004 hPa 0,0 l/m 7,9 km/h (2 Bft) N 360 0 min 14,3 klux -2,8 C 0,2 C
05.12.2021 12:56 2,4 C 6,7 C 68 % 1004 hPa 0,0 l/m 7,9 km/h (2 Bft) N 360 0 min 17,7 klux -2,9 C 0,1 C
05.12.2021 12:50 2,3 C 6,7 C 71 % 1004 hPa 0,0 l/m 7,9 km/h (2 Bft) N 360 5 min 22,5 klux -2,4 C -0,0 C
05.12.2021 12:45 2,3 C 6,7 C 70 % 1004 hPa 0,0 l/m 7,9 km/h (2 Bft) N 360 0 min 11,5 klux -2,6 C -0,0 C
05.12.2021 12:41 2,2 C 6,7 C 71 % 1004 hPa 0,0 l/m 7,9 km/h (2 Bft) N 360 0 min 10,6 klux -2,5 C -0,1 C
05.12.2021 12:35 2,1 C 6,7 C 70 % 1004 hPa 0,0 l/m 7,9 km/h (2 Bft) N 360 0 min 8,49 klux -2,8 C -0,2 C
05.12.2021 12:30 2,1 C 6,7 C 70 % 1004 hPa 0,0 l/m 7,9 km/h (2 Bft) N 360 0 min 7,26 klux -2,8 C -0,2 C
05.12.2021 12:25 2,1 C 6,7 C 70 % 1004 hPa 0,0 l/m 7,9 km/h (2 Bft) N 360 0 min 7,34 klux -2,8 C -0,2 C
05.12.2021 12:20 2,1 C 6,7 C 70 % 1004 hPa 0,3 l/m 7,9 km/h (2 Bft) N 360 0 min 6,99 klux -2,8 C -0,2 C
05.12.2021 12:15 2,1 C 6,7 C 71 % 1004 hPa 0,0 l/m 7,9 km/h (2 Bft) N 360 0 min 6,52 klux -2,6 C -0,2 C
05.12.2021 12:10 2,1 C 6,7 C 71 % 1004 hPa 0,0 l/m 7,9 km/h (2 Bft) N 360 0 min 7,22 klux -2,6 C -0,2 C
05.12.2021 12:05 2,1 C 6,7 C 71 % 1004 hPa 0,0 l/m 7,9 km/h (2 Bft) N 360 0 min 9,1 klux -2,6 C -0,2 C
05.12.2021 12:00 2,1 C 6,7 C 70 % 1004 hPa 0,0 l/m 7,9 km/h (2 Bft) N 360 0 min 11,6 klux -2,8 C -0,2 C
05.12.2021 11:56 2,1 C 6,7 C 69 % 1004 hPa 0,0 l/m 7,9 km/h (2 Bft) N 360 0 min 11,3 klux -3,0 C -0,2 C
05.12.2021 11:55 2,1 C 6,7 C 69 % 1004 hPa 0,0 l/m 7,9 km/h (2 Bft) N 360 0 min 11,3 klux -3,0 C -0,2 C
05.12.2021 11:50 2,2 C 6,7 C 70 % 1004 hPa 0,0 l/m 7,9 km/h (2 Bft) N 360 0 min 7,82 klux -2,7 C -0,1 C
05.12.2021 11:45 2,2 C 6,7 C 70 % 1004 hPa 0,0 l/m 7,9 km/h (2 Bft) N 360 0 min 6,57 klux -2,7 C -0,1 C
05.12.2021 11:40 2,2 C 6,7 C 70 % 1004 hPa 0,0 l/m 7,9 km/h (2 Bft) N 360 0 min 9,6 klux -2,7 C -0,1 C
05.12.2021 11:35 2,2 C 6,8 C 71 % 1004 hPa 0,0 l/m 7,9 km/h (2 Bft) N 360 0 min 13,5 klux -2,5 C -0,1 C
05.12.2021 11:30 2,2 C 6,7 C 73 % 1004 hPa 0,0 l/m 7,9 km/h (2 Bft) N 360 0 min 16,3 klux -2,1 C -0,1 C
05.12.2021 11:25 2,2 C 6,8 C 72 % 1004 hPa 0,0 l/m 7,9 km/h (2 Bft) N 360 0 min 16,8 klux -2,3 C -0,1 C
05.12.2021 11:20 2,1 C 6,7 C 73 % 1004 hPa 0,0 l/m 7,9 km/h (2 Bft) N 360 5 min 32,4 klux -2,2 C -0,2 C
05.12.2021 11:15 1,9 C 6,7 C 74 % 1004 hPa 0,0 l/m 7,9 km/h (2 Bft) N 360 4 min 33,1 klux -2,2 C -0,5 C
05.12.2021 11:11 1,8 C 6,7 C 75 % 1004 hPa 0,0 l/m 7,9 km/h (2 Bft) N 360 6 min 31,3 klux -2,1 C -0,6 C
05.12.2021 11:05 1,7 C 6,8 C 76 % 1004 hPa 0,0 l/m 7,9 km/h (2 Bft) N 360 4 min 33,4 klux -2,1 C -0,7 C
05.12.2021 11:01 1,6 C 6,8 C 76 % 1004 hPa 0,0 l/m 7,9 km/h (2 Bft) N 360 6 min 32,7 klux -2,2 C -0,8 C
05.12.2021 10:55 1,4 C 6,8 C 78 % 1004 hPa 0,0 l/m 7,9 km/h (2 Bft) N 360 5 min 30,0 klux -2,0 C -1,1 C
05.12.2021 10:50 1,4 C 6,7 C 78 % 1004 hPa 0,0 l/m 7,9 km/h (2 Bft) N 360 4 min 29,1 klux -2,0 C -1,1 C
05.12.2021 10:46 1,3 C 6,7 C 80 % 1004 hPa 0,0 l/m 7,9 km/h (2 Bft) N 360 6 min 21,4 klux -1,8 C -1,2 C
05.12.2021 10:40 1,3 C 6,7 C 81 % 1004 hPa 0,0 l/m 7,9 km/h (2 Bft) N 360 5 min 19,9 klux -1,6 C -1,2 C
05.12.2021 10:35 1,2 C 6,7 C 81 % 1004 hPa 0,0 l/m 7,9 km/h (2 Bft) N 360 5 min 17,3 klux -1,7 C -1,3 C
05.12.2021 10:30 1,2 C 6,7 C 81 % 1004 hPa 0,0 l/m 7,9 km/h (2 Bft) N 360 5 min 21,4 klux -1,7 C -1,3 C
05.12.2021 10:25 1,2 C 6,8 C 81 % 1004 hPa 0,0 l/m 7,9 km/h (2 Bft) N 360 5 min 18,6 klux -1,7 C -1,3 C
05.12.2021 10:20 1,2 C 6,8 C 81 % 1004 hPa 0,0 l/m 7,9 km/h (2 Bft) N 360 0 min 9,0 klux -1,7 C -1,3 C
05.12.2021 10:15 1,2 C 6,8 C 81 % 1004 hPa 0,0 l/m 7,9 km/h (2 Bft) N 360 0 min 10,4 klux -1,7 C -1,3 C
05.12.2021 10:10 1,2 C 6,8 C 82 % 1004 hPa 0,0 l/m 7,9 km/h (2 Bft) N 360 0 min 8,99 klux -1,5 C -1,3 C
05.12.2021 10:05 1,1 C 6,8 C 82 % 1004 hPa 0,0 l/m 7,9 km/h (2 Bft) N 360 0 min 13,6 klux -1,6 C -1,4 C
05.12.2021 10:00 1,1 C 6,8 C 82 % 1004 hPa 0,0 l/m 7,9 km/h (2 Bft) N 360 5 min 17,0 klux -1,6 C -1,4 C
05.12.2021 09:55 1,0 C 6,8 C 83 % 1004 hPa 0,0 l/m 7,9 km/h (2 Bft) N 360 5 min 20,0 klux -1,6 C -1,5 C
05.12.2021 09:50 1,0 C 6,8 C 83 % 1004 hPa 0,0 l/m 7,9 km/h (2 Bft) N 360 5 min 16,0 klux -1,6 C -1,5 C
05.12.2021 09:45 1,0 C 6,8 C 83 % 1004 hPa 0,0 l/m 7,9 km/h (2 Bft) N 360 0 min 10,5 klux -1,6 C -1,5 C
05.12.2021 09:41 0,9 C 6,8 C 84 % 1004 hPa 0,0 l/m 7,9 km/h (2 Bft) N 360 0 min 6,77 klux -1,5 C -1,7 C
05.12.2021 09:35 0,9 C 6,8 C 85 % 1004 hPa 0,0 l/m 7,9 km/h (2 Bft) N 360 0 min 6,42 klux -1,3 C -1,7 C
05.12.2021 09:30 0,8 C 6,7 C 85 % 1004 hPa 0,0 l/m 7,9 km/h (2 Bft) N 360 0 min 5,50 klux -1,4 C -1,8 C
05.12.2021 09:26 0,8 C 6,7 C 85 % 1004 hPa 0,0 l/m 7,9 km/h (2 Bft) N 360 0 min 5,10 klux -1,4 C -1,8 C
05.12.2021 09:20 0,7 C 6,7 C 85 % 1004 hPa 0,0 l/m 7,9 km/h (2 Bft) N 360 0 min 4,58 klux -1,5 C -1,9 C
05.12.2021 09:15 0,7 C 6,7 C 84 % 1004 hPa 0,0 l/m 7,9 km/h (2 Bft) N 360 0 min 4,75 klux -1,7 C -1,9 C
05.12.2021 09:10 0,7 C 6,7 C 84 % 1004 hPa 0,0 l/m 7,9 km/h (2 Bft) N 360 0 min 4,80 klux -1,7 C -1,9 C
05.12.2021 09:05 0,7 C 6,8 C 83 % 1004 hPa 0,0 l/m 7,9 km/h (2 Bft) N 360 0 min 4,75 klux -1,8 C -1,9 C
05.12.2021 09:00 0,6 C 6,7 C 83 % 1003 hPa 0,0 l/m 7,9 km/h (2 Bft) N 360 0 min 4,38 klux -1,9 C -2,0 C
05.12.2021 08:55 0,6 C 6,7 C 83 % 1003 hPa 0,0 l/m 7,9 km/h (2 Bft) N 360 0 min 4,24 klux -1,9 C -2,0 C
05.12.2021 08:50 0,7 C 6,7 C 83 % 1003 hPa 0,0 l/m 7,9 km/h (2 Bft) N 360 0 min 3,75 klux -1,8 C -1,9 C
05.12.2021 08:45 0,7 C 6,8 C 83 % 1003 hPa 0,0 l/m 7,9 km/h (2 Bft) N 360 0 min 3,63 klux -1,8 C -1,9 C
05.12.2021 08:40 0,7 C 6,7 C 83 % 1003 hPa 0,0 l/m 7,9 km/h (2 Bft) N 360 0 min 3,37 klux -1,8 C -1,9 C
05.12.2021 08:35 0,8 C 6,7 C 82 % 1003 hPa 0,0 l/m 7,9 km/h (2 Bft) N 360 0 min 2,86 klux -1,9 C -1,8 C
05.12.2021 08:30 0,8 C 6,7 C 82 % 1003 hPa 0,0 l/m 7,9 km/h (2 Bft) N 360 0 min 2,25 klux -1,9 C -1,8 C
05.12.2021 08:25 0,8 C 6,7 C 82 % 1003 hPa 0,0 l/m 7,9 km/h (2 Bft) N 360 0 min 1,85 klux -1,9 C -1,8 C
05.12.2021 08:20 0,9 C 6,8 C 83 % 1003 hPa 0,0 l/m 7,9 km/h (2 Bft) N 360 0 min 1,58 klux -1,7 C -1,7 C
05.12.2021 08:15 0,9 C 6,8 C 83 % 1003 hPa 0,0 l/m 7,9 km/h (2 Bft) N 360 0 min 1,24 klux -1,7 C -1,7 C
05.12.2021 08:10 0,9 C 6,8 C 83 % 1003 hPa 0,0 l/m 7,9 km/h (2 Bft) N 360 0 min 829 lux -1,7 C -1,7 C
05.12.2021 08:05 0,9 C 6,8 C 83 % 1003 hPa 0,0 l/m 7,9 km/h (2 Bft) N 360 0 min 668 lux -1,7 C -1,7 C
05.12.2021 08:00 1,0 C 6,8 C 83 % 1003 hPa 0,0 l/m 7,9 km/h (2 Bft) N 360 0 min 375 lux -1,6 C -1,5 C
05.12.2021 07:55 1,0 C 6,8 C 83 % 1003 hPa 0,0 l/m 7,9 km/h (2 Bft) N 360 0 min 306 lux -1,6 C -1,5 C
05.12.2021 07:50 1,0 C 6,8 C 83 % 1003 hPa 0,0 l/m 11,6 km/h (2 Bft) N 360 0 min 197 lux -1,6 C -2,5 C
05.12.2021 07:45 0,9 C 6,8 C 83 % 1003 hPa 0,0 l/m 9,1 km/h (2 Bft) N 355 0 min 87 lux -1,7 C -2,0 C
05.12.2021 07:40 0,9 C 6,8 C 83 % 1003 hPa 0,0 l/m 9,1 km/h (2 Bft) N 355 0 min 66 lux -1,7 C -2,0 C
05.12.2021 07:35 0,9 C 6,8 C 83 % 1003 hPa 0,0 l/m 9,1 km/h (2 Bft) N 355 0 min 0 lux -1,7 C -2,0 C
05.12.2021 07:30 0,9 C 6,8 C 84 % 1003 hPa 0,0 l/m 9,1 km/h (2 Bft) N 355 0 min 0 lux -1,5 C -2,0 C
05.12.2021 07:25 0,9 C 6,8 C 84 % 1003 hPa 0,0 l/m 9,1 km/h (2 Bft) N 355 0 min 0 lux -1,5 C -2,0 C
05.12.2021 07:20 0,9 C 6,8 C 84 % 1003 hPa 0,0 l/m 9,1 km/h (2 Bft) N 355 0 min 0 lux -1,5 C -2,0 C
05.12.2021 07:15 0,9 C 6,8 C 84 % 1003 hPa 0,0 l/m 9,1 km/h (2 Bft) N 355 0 min 0 lux -1,5 C -2,0 C
05.12.2021 07:10 0,9 C 6,8 C 84 % 1003 hPa 0,0 l/m 9,1 km/h (2 Bft) N 355 0 min 0 lux -1,5 C -2,0 C
05.12.2021 07:05 0,8 C 6,8 C 84 % 1003 hPa 0,0 l/m 9,1 km/h (2 Bft) N 355 0 min 0 lux -1,6 C -2,1 C
05.12.2021 07:00 0,8 C 6,8 C 84 % 1002 hPa 0,0 l/m 9,1 km/h (2 Bft) N 355 0 min 0 lux -1,6 C -2,1 C
05.12.2021 06:55 0,8 C 6,8 C 84 % 1002 hPa 0,0 l/m 9,1 km/h (2 Bft) N 355 0 min 0 lux -1,6 C -2,1 C
05.12.2021 06:50 0,7 C 6,8 C 85 % 1003 hPa 0,0 l/m 9,1 km/h (2 Bft) N 355 0 min 0 lux -1,5 C -2,2 C
05.12.2021 06:45 0,7 C 6,8 C 85 % 1003 hPa 0,0 l/m 9,1 km/h (2 Bft) N 355 0 min 0 lux -1,5 C -2,2 C
05.12.2021 06:40 0,7 C 6,8 C 84 % 1002 hPa 0,0 l/m 9,1 km/h (2 Bft) N 355 0 min 0 lux -1,7 C -2,2 C
05.12.2021 06:35 0,7 C 6,8 C 84 % 1002 hPa 0,0 l/m 9,1 km/h (2 Bft) N 355 0 min 0 lux -1,7 C -2,2 C
05.12.2021 06:30 0,7 C 6,8 C 84 % 1002 hPa 0,0 l/m 9,1 km/h (2 Bft) N 355 0 min 0 lux -1,7 C -2,2 C
05.12.2021 06:25 0,6 C 6,8 C 84 % 1002 hPa 0,0 l/m 9,1 km/h (2 Bft) N 355 0 min 0 lux -1,8 C -2,4 C
05.12.2021 06:20 0,6 C 6,8 C 83 % 1002 hPa 0,0 l/m 9,1 km/h (2 Bft) N 355 0 min 0 lux -1,9 C -2,4 C
05.12.2021 06:15 0,6 C 6,8 C 83 % 1003 hPa 0,0 l/m 9,1 km/h (2 Bft) N 355 0 min 0 lux -1,9 C -2,4 C
05.12.2021 06:10 0,6 C 6,8 C 82 % 1003 hPa 0,0 l/m 9,1 km/h (2 Bft) N 355 0 min 0 lux -2,1 C -2,4 C
05.12.2021 06:05 0,6 C 6,8 C 82 % 1002 hPa 0,0 l/m 9,1 km/h (2 Bft) N 355 0 min 0 lux -2,1 C -2,4 C
05.12.2021 06:00 0,7 C 6,8 C 82 % 1002 hPa 0,0 l/m 9,1 km/h (2 Bft) N 355 0 min 0 lux -2,0 C -2,2 C
05.12.2021 05:55 0,7 C 6,8 C 81 % 1002 hPa 0,0 l/m 9,1 km/h (2 Bft) N 355 0 min 0 lux -2,2 C -2,2 C
05.12.2021 05:50 0,7 C 6,8 C 81 % 1002 hPa 0,0 l/m 9,1 km/h (2 Bft) N 355 0 min 0 lux -2,2 C -2,2 C
05.12.2021 05:45 0,7 C 6,8 C 80 % 1002 hPa 0,0 l/m 9,1 km/h (2 Bft) N 355 0 min 0 lux -2,3 C -2,2 C
05.12.2021 05:40 0,8 C 6,8 C 80 % 1002 hPa 0,0 l/m 9,1 km/h (2 Bft) N 355 0 min 0 lux -2,2 C -2,1 C
05.12.2021 05:35 0,8 C 6,8 C 80 % 1002 hPa 0,0 l/m 9,1 km/h (2 Bft) N 355 0 min 0 lux -2,2 C -2,1 C
05.12.2021 05:30 0,9 C 6,8 C 79 % 1002 hPa 0,0 l/m 9,1 km/h (2 Bft) N 355 0 min 0 lux -2,3 C -2,0 C
05.12.2021 05:25 0,9 C 6,8 C 79 % 1002 hPa 0,0 l/m 9,1 km/h (2 Bft) N 355 0 min 0 lux -2,3 C -2,0 C
05.12.2021 05:20 1,0 C 6,8 C 79 % 1002 hPa 0,0 l/m 9,1 km/h (2 Bft) N 355 0 min 0 lux -2,2 C -1,9 C
05.12.2021 05:15 1,1 C 6,8 C 78 % 1002 hPa 0,0 l/m 9,1 km/h (2 Bft) N 355 0 min 0 lux -2,3 C -1,8 C
05.12.2021 05:10 1,2 C 6,8 C 78 % 1002 hPa 0,0 l/m 9,1 km/h (2 Bft) N 355 0 min 0 lux -2,2 C -1,6 C
05.12.2021 05:05 1,3 C 6,8 C 78 % 1002 hPa 0,0 l/m 9,1 km/h (2 Bft) N 355 0 min 0 lux -2,1 C -1,5 C
05.12.2021 05:00 1,3 C 6,8 C 78 % 1002 hPa 0,0 l/m 9,1 km/h (2 Bft) N 355 0 min 0 lux -2,1 C -1,5 C
05.12.2021 04:55 1,4 C 6,8 C 78 % 1002 hPa 0,0 l/m 9,1 km/h (2 Bft) N 355 0 min 0 lux -2,0 C -1,4 C
05.12.2021 04:50 1,4 C 6,8 C 78 % 1002 hPa 0,3 l/m 9,1 km/h (2 Bft) N 355 0 min 0 lux -2,0 C -1,4 C
05.12.2021 04:45 1,4 C 6,8 C 78 % 1002 hPa 0,0 l/m 9,1 km/h (2 Bft) N 355 0 min 0 lux -2,0 C -1,4 C
05.12.2021 04:40 1,4 C 6,8 C 78 % 1002 hPa 0,0 l/m 5,9 km/h (2 Bft) N 355 0 min 0 lux -2,0 C -0,4 C
05.12.2021 04:35 1,5 C 6,8 C 78 % 1002 hPa 0,0 l/m 5,9 km/h (2 Bft) N 355 0 min 0 lux -1,9 C -0,3 C
05.12.2021 04:30 1,5 C 6,8 C 78 % 1002 hPa 0,0 l/m 5,9 km/h (2 Bft) N 355 0 min 0 lux -1,9 C -0,3 C
05.12.2021 04:25 1,6 C 6,8 C 77 % 1002 hPa 0,0 l/m 5,9 km/h (2 Bft) N 355 0 min 0 lux -2,0 C -0,1 C
05.12.2021 04:20 1,6 C 6,8 C 77 % 1002 hPa 0,0 l/m 5,9 km/h (2 Bft) N 355 0 min 0 lux -2,0 C -0,1 C
05.12.2021 04:15 1,6 C 6,8 C 77 % 1002 hPa 0,0 l/m 5,9 km/h (2 Bft) N 355 0 min 0 lux -2,0 C -0,1 C
05.12.2021 04:10 1,6 C 6,8 C 77 % 1002 hPa 0,0 l/m 5,9 km/h (2 Bft) N 355 0 min 0 lux -2,0 C -0,1 C
05.12.2021 04:05 1,7 C 6,8 C 77 % 1002 hPa 0,0 l/m 5,9 km/h (2 Bft) N 355 0 min 0 lux -1,9 C -0,0 C
05.12.2021 04:00 1,7 C 6,8 C 77 % 1002 hPa 0,0 l/m 5,9 km/h (2 Bft) N 355 0 min 0 lux -1,9 C -0,0 C
05.12.2021 03:55 1,7 C 6,8 C 77 % 1002 hPa 0,0 l/m 5,9 km/h (2 Bft) N 355 0 min 0 lux -1,9 C -0,0 C
05.12.2021 03:50 1,8 C 6,8 C 77 % 1002 hPa 0,0 l/m 5,9 km/h (2 Bft) N 355 0 min 0 lux -1,8 C 0,1 C
05.12.2021 03:45 1,8 C 6,8 C 77 % 1002 hPa 0,0 l/m 5,9 km/h (2 Bft) N 355 0 min 0 lux -1,8 C 0,1 C
05.12.2021 03:40 1,9 C 6,8 C 77 % 1002 hPa 0,0 l/m 5,9 km/h (2 Bft) N 355 0 min 0 lux -1,7 C 0,2 C
05.12.2021 03:35 1,9 C 6,8 C 78 % 1002 hPa 0,0 l/m 5,9 km/h (2 Bft) N 355 0 min 0 lux -1,5 C 0,2 C
05.12.2021 03:30 1,9 C 6,8 C 78 % 1002 hPa 0,0 l/m 5,9 km/h (2 Bft) N 355 0 min 0 lux -1,5 C 0,2 C
05.12.2021 03:25 1,9 C 6,8 C 79 % 1002 hPa 0,0 l/m 5,9 km/h (2 Bft) N 355 0 min 0 lux -1,3 C 0,2 C
05.12.2021 03:20 1,9 C 6,8 C 79 % 1002 hPa 0,0 l/m 5,9 km/h (2 Bft) N 355 0 min 0 lux -1,3 C 0,2 C
05.12.2021 03:15 1,9 C 6,8 C 79 % 1002 hPa 0,0 l/m 5,9 km/h (2 Bft) N 355 0 min 0 lux -1,3 C 0,2 C
05.12.2021 03:10 1,9 C 6,8 C 79 % 1002 hPa 0,0 l/m 5,9 km/h (2 Bft) N 355 0 min 0 lux -1,3 C 0,2 C
05.12.2021 03:05 1,9 C 6,8 C 79 % 1002 hPa 0,0 l/m 5,9 km/h (2 Bft) N 355 0 min 0 lux -1,3 C 0,2 C
05.12.2021 03:01 1,9 C 6,8 C 78 % 1002 hPa 0,0 l/m 5,9 km/h (2 Bft) N 355 0 min 0 lux -1,5 C 0,2 C
05.12.2021 03:00 1,9 C 6,8 C 78 % 1002 hPa 0,0 l/m 5,9 km/h (2 Bft) N 355 0 min 0 lux -1,5 C 0,2 C
05.12.2021 02:55 1,9 C 6,8 C 78 % 1002 hPa 0,0 l/m 5,9 km/h (2 Bft) N 355 0 min 0 lux -1,5 C 0,2 C
05.12.2021 02:50 1,9 C 6,8 C 77 % 1002 hPa 0,0 l/m 5,9 km/h (2 Bft) N 355 0 min 0 lux -1,7 C 0,2 C
05.12.2021 02:45 1,9 C 6,8 C 76 % 1002 hPa 0,0 l/m 5,9 km/h (2 Bft) N 355 0 min 0 lux -1,9 C 0,2 C
05.12.2021 02:40 1,9 C 6,8 C 76 % 1002 hPa 0,0 l/m 5,9 km/h (2 Bft) N 355 0 min 0 lux -1,9 C 0,2 C
05.12.2021 02:35 2,0 C 6,8 C 76 % 1002 hPa 0,0 l/m 5,9 km/h (2 Bft) N 355 0 min 0 lux -1,8 C 0,3 C
05.12.2021 02:30 2,1 C 6,8 C 76 % 1002 hPa 0,0 l/m 5,9 km/h (2 Bft) N 355 0 min 0 lux -1,7 C 0,4 C
05.12.2021 02:25 2,1 C 6,8 C 76 % 1002 hPa 0,0 l/m 5,9 km/h (2 Bft) N 355 0 min 0 lux -1,7 C 0,4 C
05.12.2021 02:20 2,1 C 6,8 C 76 % 1001 hPa 0,0 l/m 5,9 km/h (2 Bft) N 355 0 min 0 lux -1,7 C 0,4 C
05.12.2021 02:15 2,1 C 6,8 C 76 % 1001 hPa 0,0 l/m 5,9 km/h (2 Bft) N 355 0 min 0 lux -1,7 C 0,4 C
05.12.2021 02:10 2,2 C 6,8 C 75 % 1001 hPa 0,0 l/m 11,7 km/h (2 Bft) N 355 0 min 0 lux -1,8 C -1,1 C
05.12.2021 02:05 2,2 C 6,8 C 76 % 1001 hPa 0,0 l/m 3,8 km/h (1 Bft) N 355 0 min 0 lux -1,6 C 2,2 C
05.12.2021 02:00 2,3 C 6,8 C 76 % 1001 hPa 0,0 l/m 3,8 km/h (1 Bft) N 355 0 min 0 lux -1,5 C 2,3 C
05.12.2021 01:55 2,3 C 6,8 C 77 % 1001 hPa 0,0 l/m 3,8 km/h (1 Bft) N 355 0 min 0 lux -1,3 C 2,3 C
05.12.2021 01:50 2,3 C 6,8 C 77 % 1001 hPa 0,0 l/m 3,8 km/h (1 Bft) N 355 0 min 0 lux -1,3 C 2,3 C
05.12.2021 01:45 2,3 C 6,8 C 77 % 1000 hPa 0,0 l/m 3,8 km/h (1 Bft) N 355 0 min 0 lux -1,3 C 2,3 C
05.12.2021 01:40 2,4 C 6,8 C 78 % 1000 hPa 0,0 l/m 3,8 km/h (1 Bft) N 355 0 min 0 lux -1,0 C 2,4 C
05.12.2021 01:35 2,4 C 6,8 C 79 % 1000 hPa 0,0 l/m 3,8 km/h (1 Bft) N 355 0 min 0 lux -0,9 C 2,4 C
05.12.2021 01:30 2,4 C 6,8 C 80 % 1000 hPa 0,0 l/m 3,8 km/h (1 Bft) N 355 0 min 0 lux -0,7 C 2,4 C
05.12.2021 01:25 2,5 C 6,8 C 81 % 1000 hPa 0,0 l/m 3,8 km/h (1 Bft) N 355 0 min 0 lux -0,4 C 2,5 C
05.12.2021 01:20 2,5 C 6,8 C 82 % 1000 hPa 0,0 l/m 3,8 km/h (1 Bft) N 355 0 min 0 lux -0,3 C 2,5 C
05.12.2021 01:15 2,6 C 6,8 C 83 % 1000 hPa 0,0 l/m 3,8 km/h (1 Bft) N 355 0 min 0 lux 0,0 C 2,6 C
05.12.2021 01:10 2,6 C 6,8 C 84 % 1000 hPa 0,0 l/m 3,8 km/h (1 Bft) N 355 0 min 0 lux 0,2 C 2,6 C
05.12.2021 01:05 2,5 C 6,8 C 84 % 1000 hPa 0,0 l/m 3,8 km/h (1 Bft) N 355 0 min 0 lux 0,1 C 2,5 C
05.12.2021 01:00 2,5 C 6,8 C 84 % 1000 hPa 0,0 l/m 3,8 km/h (1 Bft) N 355 0 min 0 lux 0,1 C 2,5 C
05.12.2021 00:55 2,5 C 6,8 C 85 % 1000 hPa 0,0 l/m 3,8 km/h (1 Bft) N 355 0 min 0 lux 0,2 C 2,5 C
05.12.2021 00:50 2,5 C 6,8 C 85 % 1000 hPa 0,0 l/m 3,8 km/h (1 Bft) N 355 0 min 0 lux 0,2 C 2,5 C
05.12.2021 00:45 2,5 C 6,8 C 85 % 1000 hPa 0,0 l/m 3,8 km/h (1 Bft) N 355 0 min 0 lux 0,2 C 2,5 C
05.12.2021 00:40 2,5 C 6,8 C 85 % 1000 hPa 0,0 l/m 3,8 km/h (1 Bft) N 355 0 min 0 lux 0,2 C 2,5 C
05.12.2021 00:35 2,5 C 6,8 C 85 % 1000 hPa 0,0 l/m 3,8 km/h (1 Bft) N 355 0 min 0 lux 0,2 C 2,5 C
05.12.2021 00:30 2,5 C 6,8 C 85 % 1000 hPa 0,0 l/m 3,8 km/h (1 Bft) N 355 0 min 0 lux 0,2 C 2,5 C
05.12.2021 00:25 2,5 C 6,8 C 84 % 999 hPa 0,0 l/m 3,8 km/h (1 Bft) N 355 0 min 0 lux 0,1 C 2,5 C
05.12.2021 00:20 2,5 C 6,8 C 84 % 999 hPa 0,0 l/m 3,8 km/h (1 Bft) N 355 0 min 0 lux 0,1 C 2,5 C
05.12.2021 00:15 2,5 C 6,8 C 84 % 999 hPa 0,0 l/m 3,8 km/h (1 Bft) N 355 0 min 0 lux 0,1 C 2,5 C
05.12.2021 00:10 2,6 C 6,8 C 84 % 999 hPa 0,0 l/m 3,8 km/h (1 Bft) N 355 0 min 0 lux 0,2 C 2,6 C
05.12.2021 00:05 2,6 C 6,8 C 84 % 1000 hPa 0,0 l/m 3,8 km/h (1 Bft) N 355 0 min 0 lux 0,2 C 2,6 C
05.12.2021 00:00 2,5 C 6,8 C 84 % 1000 hPa 0,0 l/m 3,8 km/h (1 Bft) N 355 0 min 0 lux 0,1 C 2,5 C
_ Min-Zeit 23:00 21:50 14:20 00:10 - 13:25 - - - - 13:10 07:50
Minimum _ -0,6 C 6,6 C 65 % 999 hPa - 0,0 km/h (0 Bft) - - - - -3,1 C -2,5 C
_ Max-Zeit 18:00 00:00 23:00 22:20 04:50 02:10 - - 10:46 11:05 18:00 18:00
Maximum _ 6,5 C 6,8 C 87 % 1008 hPa 0,3 l/m 11,7 km/h
N (2 Bft)
- - 6 min 33,4 klux 2,8 C 6,5 C
Durchschnitt _ 1,6 C 6,7 C 78 % 1003 hPa #1,2 l/m 4,1 km/h (1 Bft) N - #1:20 h 3,31 klux -1,9 C 0,4 C